KA8DUX-2 Weather Reports


Display with metric or nautical units.
time (UTC)temp
F
wind
direction
speed
MPH
gust
MPH
rain 1hr
in
rain 24hr
in
rain mn
in
humidity
%
barometer
mb
20260902222701 87 150 0.0 0.0 0.00 0.00 0.00 67 1011.5
20260902222201 87 103 0.0 0.0 0.00 0.00 0.00 67 1011.5
20260902221654 88 90 1.0 2.0 0.00 0.00 0.00 66 1011.4
20260902221148 88 88 0.0 0.0 0.00 0.00 0.00 66 1011.5
20260902220644 88 116 0.0 0.0 0.00 0.00 0.00 66 1011.2
20260902220140 89 128 0.0 0.0 0.00 0.00 0.00 65 1011.4
20260902215636 89 140 0.0 0.0 0.00 0.00 0.00 66 1011.6
20260902215131 89 140 0.0 0.0 0.00 0.00 0.00 65 1011.2
20260902214625 89 87 0.0 0.0 0.00 0.00 0.00 65 1011.0
20260902214125 90 112 0.0 0.0 0.00 0.00 0.00 65 1011.0
20260902213620 90 114 0.0 1.0 0.00 0.00 0.00 63 1010.8
20260902213119 91 124 0.0 1.0 0.00 0.00 0.00 62 1011.1
20260902212615 91 127 0.0 0.0 0.00 0.00 0.00 61 1011.0
20260902212111 90 130 0.0 0.0 0.00 0.00 0.00 63 1010.9
20260902211607 91 139 0.0 0.0 0.00 0.00 0.00 63 1011.1
20260902211102 90 139 0.0 0.0 0.00 0.00 0.00 64 1011.1
20260902210601 90 132 1.0 1.0 0.00 0.00 0.00 63 1011.2
20260902210056 91 177 0.0 0.0 0.00 0.00 0.00 63 1011.4
20260902205555 92 78 1.0 2.0 0.00 0.00 0.00 61 1011.5
20260902205051 92 145 0.0 0.0 0.00 0.00 0.00 60 1011.2
20260902204551 93 119 0.0 1.0 0.00 0.00 0.00 58 1011.4
20260902204045 93 135 2.0 3.0 0.00 0.00 0.00 58 1011.1
20260902203541 93 152 1.0 1.0 0.00 0.00 0.00 57 1011.2
20260902203040 94 127 1.0 2.0 0.00 0.00 0.00 59 1011.2
20260902202536 95 180 0.0 0.0 0.00 0.00 0.00 59 1011.2
20260902202032 96 134 0.0 1.0 0.00 0.00 0.00 58 1011.0
20260902201527 96 191 1.0 1.0 0.00 0.00 0.00 57 1011.1
20260902201021 96 141 0.0 1.0 0.00 0.00 0.00 57 1011.1
20260902200516 96 157 0.0 0.0 0.00 0.00 0.00 58 1010.9
20260902200013 96 128 3.0 6.0 0.00 0.00 0.00 57 1011.1
20260902195508 96 221 2.0 2.0 0.00 0.00 0.00 59 1011.2
20260902195007 95 154 0.0 1.0 0.00 0.00 0.00 60 1011.1
20260902194501 94 145 1.0 3.0 0.00 0.00 0.00 60 1011.1
20260902193956 95 117 1.0 1.0 0.00 0.00 0.00 59 1011.2
20260902193452 95 273 4.0 6.0 0.00 0.00 0.00 58 1011.5
20260902192950 94 231 5.0 7.0 0.00 0.00 0.00 60 1011.6
20260902192450 94 250 3.0 5.0 0.00 0.00 0.00 58 1011.8
20260902191949 96 224 5.0 9.0 0.00 0.00 0.00 57 1012.0
20260902191444 96 207 1.0 2.0 0.00 0.00 0.00 59 1012.0
20260902190939 95 153 1.0 2.0 0.00 0.00 0.00 60 1012.0
20260902190435 95 138 1.0 1.0 0.00 0.00 0.00 59 1011.9
20260902185930 94 142 1.0 2.0 0.00 0.00 0.00 63 1011.8
20260902185426 93 174 1.0 2.0 0.00 0.00 0.00 64 1011.6
20260902184921 93 159 2.0 2.0 0.00 0.00 0.00 64 1011.7
20260902184416 93 130 2.0 3.0 0.00 0.00 0.00 64 1011.9
20260902183912 92 155 1.0 1.0 0.00 0.00 0.00 66 1012.0
20260902183408 92 221 2.0 3.0 0.00 0.00 0.00 65 1012.0
20260902182903 92 112 1.0 2.0 0.00 0.00 0.00 65 1011.9
20260902182354 92 248 3.0 3.0 0.00 0.00 0.00 64 1012.1
20260902181850 92 177 2.0 2.0 0.00 0.00 0.00 65 1012.4
20260902181346 93 125 2.0 5.0 0.00 0.00 0.00 65 1012.5
20260902180845 91 136 0.0 0.0 0.00 0.00 0.00 66 1012.2
20260902180341 91 142 0.0 1.0 0.00 0.00 0.00 67 1012.6
20260902175835 92 270 4.0 8.0 0.00 0.00 0.00 65 1012.5
20260902175331 93 203 2.0 3.0 0.00 0.00 0.00 65 1012.5
20260902174821 91 164 2.0 2.0 0.00 0.00 0.00 67 1012.6
20260902174317 92 201 2.0 2.0 0.00 0.00 0.00 66 1012.5
20260902173813 91 238 1.0 3.0 0.00 0.00 0.00 67 1012.5
20260902173307 91 126 0.0 0.0 0.00 0.00 0.00 71 1012.7
20260902172806 90 148 1.0 2.0 0.00 0.00 0.00 70 1012.7
20260902172301 90 185 3.0 5.0 0.00 0.00 0.00 71 1012.8
20260902171756 90 187 0.0 1.0 0.00 0.00 0.00 72 1012.9
20260902171251 90 144 1.0 2.0 0.00 0.00 0.00 72 1012.9
20260902170748 90 127 1.0 2.0 0.00 0.00 0.00 73 1012.9
20260902170243 88 209 1.0 2.0 0.00 0.00 0.00 74 1012.8
20260902165738 87 172 3.0 3.0 0.00 0.00 0.00 75 1012.9
20260902165238 88 179 2.0 3.0 0.00 0.00 0.00 76 1013.2
20260902164733 88 203 2.0 3.0 0.00 0.00 0.00 77 1012.9
20260902164233 89 229 2.0 3.0 0.00 0.00 0.00 74 1013.1
20260902163728 91 262 1.0 2.0 0.00 0.00 0.00 74 1013.0
20260902163227 90 152 2.0 3.0 0.00 0.00 0.00 72 1013.0
20260902162726 88 137 1.0 1.0 0.00 0.00 0.00 75 1013.0
20260902162221 89 132 1.0 2.0 0.00 0.00 0.00 74 1012.9
20260902161716 89 161 1.0 1.0 0.00 0.00 0.00 74 1013.1
20260902161211 88 183 0.0 1.0 0.00 0.00 0.00 75 1013.1
20260902160709 88 155 0.0 1.0 0.00 0.00 0.00 77 1013.2
20260902160202 87 128 0.0 0.0 0.00 0.00 0.00 77 1013.2
20260902155700 89 259 3.0 5.0 0.00 0.00 0.00 73 1013.3
20260902155159 87 178 1.0 1.0 0.00 0.00 0.00 76 1013.2
20260902154654 87 127 0.0 1.0 0.00 0.00 0.00 76 1013.1
20260902154149 87 137 0.0 0.0 0.00 0.00 0.00 76 1012.9
20260902153649 86 155 1.0 1.0 0.00 0.00 0.00 78 1013.0
20260902153143 86 128 0.0 0.0 0.00 0.00 0.00 79 1013.2
20260902152640 86 207 1.0 2.0 0.00 0.00 0.00 78 1013.2
20260902152135 85 135 0.0 1.0 0.00 0.00 0.00 80 1013.4
20260902151630 85 140 0.0 0.0 0.00 0.00 0.00 80 1013.3
20260902151125 86 162 1.0 1.0 0.00 0.00 0.00 79 1013.4
20260902150620 84 129 0.0 0.0 0.00 0.00 0.00 81 1013.4
20260902150116 85 171 3.0 3.0 0.00 0.00 0.00 80 1013.4
20260902145616 85 156 0.0 0.0 0.00 0.00 0.00 79 1013.5
20260902145115 85 148 2.0 2.0 0.00 0.00 0.00 80 1013.6
20260902144613 84 119 2.0 2.0 0.00 0.00 0.00 81 1013.5
20260902144112 84 143 0.0 1.0 0.00 0.00 0.00 82 1013.5
20260902143607 83 124 0.0 0.0 0.00 0.00 0.00 84 1013.4
20260902143103 83 136 1.0 1.0 0.00 0.00 0.00 83 1013.3
20260902142558 83 104 1.0 1.0 0.00 0.00 0.00 84 1013.5
20260902142053 83 133 0.0 0.0 0.00 0.00 0.00 84 1013.5
20260902141548 82 130 0.0 0.0 0.00 0.00 0.00 86 1013.5
20260902141043 82 121 0.0 0.0 0.00 0.00 0.00 86 1013.6
20260902140544 81 56 1.0 1.0 0.00 0.00 0.00 87 1013.7
20260902140039 80 150 0.0 0.0 0.00 0.00 0.00 88 1013.7
20260902135538 81 279 2.0 2.0 0.00 0.00 0.00 88 1013.9
20260902135039 80 129 0.0 0.0 0.00 0.00 0.00 88 1013.5
20260902134535 81 123 1.0 1.0 0.00 0.00 0.00 87 1013.6
20260902134035 82 89 1.0 1.0 0.00 0.00 0.00 85 1012.9
20260902133529 80 154 1.0 2.0 0.00 0.00 0.00 87 1012.3
20260902133024 80 157 2.0 2.0 0.00 0.00 0.00 88 1012.4
20260902132519 79 158 1.0 2.0 0.00 0.00 0.00 89 1012.7
20260902132015 79 196 0.0 1.0 0.00 0.00 0.00 89 1012.7
20260902131511 78 148 1.0 1.0 0.00 0.00 0.00 90 1012.8
20260902131010 78 240 1.0 2.0 0.00 0.00 0.00 91 1012.7
20260902130506 78 164 0.0 1.0 0.00 0.00 0.00 92 1012.9
20260902130001 78 161 1.0 1.0 0.00 0.00 0.00 92 1013.0
20260902125457 77 193 1.0 2.0 0.00 0.00 0.00 93 1013.0
20260902124953 77 138 1.0 1.0 0.00 0.00 0.00 94 1013.0
20260902124449 77 125 0.0 0.0 0.00 0.00 0.00 95 1013.2
20260902123943 76 167 0.0 0.0 0.00 0.00 0.00 95 1013.2
20260902123440 76 133 0.0 0.0 0.00 0.00 0.00 96 1013.3
20260902122938 76 154 0.0 0.0 0.00 0.00 0.00 97 1013.3
20260902122434 75 125 0.0 0.0 0.00 0.00 0.00 97 1013.3
20260902121930 75 150 1.0 1.0 0.00 0.00 0.00 98 1013.5
20260902121425 75 135 0.0 1.0 0.00 0.00 0.00 98 1013.4
20260902120924 75 131 0.0 1.0 0.00 0.00 0.00 99 1013.3
20260902120421 74 132 0.0 0.0 0.00 0.00 0.00 99 1013.7
20260902115920 74 132 0.0 0.0 0.00 0.00 0.00 99 1013.4
20260902115416 74 209 3.0 3.0 0.00 0.00 0.00 99 1013.4
20260902114913 74 164 0.0 0.0 0.00 0.00 0.00 99 1013.6
20260902114409 73 142 0.0 0.0 0.00 0.00 0.00 99 1013.5
20260902113903 73 149 0.0 0.0 0.00 0.00 0.00 99 1013.5
20260902113359 73 124 0.0 0.0 0.00 0.00 0.00 99 1013.6
20260902112858 73 127 0.0 0.0 0.00 0.00 0.00 99 1013.5
20260902112354 73 121 0.0 0.0 0.00 0.00 0.00 99 1013.5
20260902111850 73 149 0.0 0.0 0.00 0.00 0.00 99 1013.5
20260902111347 73 137 0.0 0.0 0.00 0.00 0.00 99 1013.4
20260902110842 73 130 0.0 0.0 0.00 0.00 0.00 99 1013.2
20260902110338 73 140 0.0 1.0 0.00 0.00 0.00 99 1013.4
20260902105837 73 108 0.0 0.0 0.00 0.00 0.00 99 1013.5
20260902105332 74 147 0.0 1.0 0.00 0.00 0.00 99 1013.5
20260902104827 74 112 0.0 0.0 0.00 0.00 0.00 99 1013.3
20260902104324 74 130 0.0 0.0 0.00 0.00 0.00 99 1013.3
20260902103823 74 105 0.0 1.0 0.00 0.00 0.00 98 1013.4
20260902103318 74 128 0.0 0.0 0.00 0.00 0.00 98 1013.2
20260902102814 74 133 0.0 0.0 0.00 0.00 0.00 98 1013.3
20260902102312 74 130 0.0 0.0 0.00 0.00 0.00 98 1013.3
20260902101807 75 132 1.0 1.0 0.00 0.00 0.00 98 1013.2
20260902101301 75 115 0.0 0.0 0.00 0.00 0.00 97 1013.4
20260902100800 75 128 0.0 0.0 0.00 0.00 0.00 97 1013.4
20260902100255 75 114 0.0 0.0 0.00 0.00 0.00 97 1013.6
20260902095749 75 119 0.0 0.0 0.00 0.00 0.00 97 1013.1
20260902095244 75 124 0.0 0.0 0.00 0.00 0.00 96 1013.1
20260902094739 75 126 0.0 0.0 0.00 0.00 0.00 96 1013.2
20260902094235 76 153 0.0 1.0 0.00 0.00 0.00 96 1013.2
20260902093734 76 131 0.0 0.0 0.00 0.00 0.00 96 1012.9
20260902093229 76 128 0.0 0.0 0.00 0.00 0.00 96 1013.1
20260902092729 76 151 0.0 1.0 0.00 0.00 0.00 96 1013.2
20260902092224 76 254 1.0 2.0 0.00 0.00 0.00 96 1013.0
20260902091724 75 144 0.0 0.0 0.00 0.00 0.00 97 1013.1
20260902091220 75 172 0.0 0.0 0.00 0.00 0.00 97 1013.3
20260902090716 75 134 0.0 0.0 0.00 0.00 0.00 97 1013.4
20260902090215 75 138 0.0 0.0 0.00 0.00 0.00 97 1013.2
20260902085710 75 144 0.0 0.0 0.00 0.00 0.00 97 1013.0
20260902085205 75 141 0.0 0.0 0.00 0.00 0.00 97 1012.9
20260902084701 76 150 0.0 0.0 0.00 0.00 0.00 97 1012.9
20260902084157 76 140 0.0 0.0 0.00 0.00 0.00 97 1012.8
20260902083652 76 138 0.0 0.0 0.00 0.00 0.00 97 1012.7
20260902083151 76 143 0.0 0.0 0.00 0.00 0.00 98 1012.8
20260902082646 76 138 0.0 0.0 0.00 0.00 0.00 98 1012.6
20260902082144 76 139 0.0 0.0 0.00 0.00 0.00 98 1012.5
20260902081639 76 126 0.0 1.0 0.00 0.00 0.00 98 1012.4
20260902081134 76 136 0.0 0.0 0.00 0.00 0.00 98 1012.6
20260902080629 76 169 0.0 0.0 0.00 0.00 0.00 98 1012.5
20260902080126 75 184 1.0 2.0 0.00 0.00 0.00 99 1012.6
20260902075625 75 137 0.0 0.0 0.00 0.00 0.00 99 1012.6
20260902075122 75 143 0.0 0.0 0.00 0.00 0.00 99 1012.8
20260902074617 76 169 0.0 0.0 0.00 0.00 0.00 99 1012.8
20260902074112 75 162 0.0 0.0 0.00 0.00 0.00 99 1012.9
20260902073607 75 139 0.0 0.0 0.00 0.00 0.00 99 1012.9
20260902073103 75 158 0.0 0.0 0.00 0.00 0.00 99 1013.1
20260902072559 75 142 0.0 0.0 0.00 0.00 0.00 99 1012.9
20260902072056 76 142 0.0 0.0 0.00 0.00 0.00 99 1012.7
20260902071555 76 134 0.0 0.0 0.00 0.00 0.00 99 1013.0
20260902071051 75 136 0.0 0.0 0.00 0.00 0.00 99 1013.0
20260902070546 75 140 0.0 0.0 0.00 0.00 0.00 99 1012.8
20260902070041 75 137 0.0 0.0 0.00 0.00 0.00 99 1012.8
20260902065535 75 133 0.0 0.0 0.00 0.00 0.00 99 1012.8
20260902065030 75 149 0.0 0.0 0.00 0.00 0.00 99 1012.9
20260902064526 75 148 0.0 0.0 0.00 0.00 0.00 99 1012.9
20260902064022 75 144 0.0 0.0 0.00 0.00 0.00 99 1013.0
20260902063521 75 142 0.0 0.0 0.00 0.00 0.00 99 1012.8
20260902063016 75 135 0.0 0.0 0.00 0.00 0.00 99 1012.8
20260902062515 75 142 0.0 0.0 0.00 0.00 0.00 99 1012.7
20260902062011 75 155 0.0 0.0 0.00 0.00 0.00 99 1012.5
20260902061505 75 154 0.0 0.0 0.00 0.00 0.00 99 1012.6
20260902061001 75 147 0.0 0.0 0.00 0.00 0.00 99 1012.9
20260902060457 75 149 0.0 0.0 0.00 0.00 0.00 99 1012.5
20260902055953 75 138 0.0 0.0 0.00 0.00 0.00 99 1012.4
20260902055449 75 134 0.0 0.0 0.00 0.00 0.00 98 1012.5
20260902054944 75 136 0.0 0.0 0.00 0.00 0.00 98 1012.6
20260902054439 74 142 0.0 0.0 0.00 0.00 0.00 98 1012.5
20260902053934 74 144 0.0 0.0 0.00 0.00 0.00 98 1012.5
20260902053430 74 130 0.0 0.0 0.00 0.00 0.00 97 1012.6
20260902052928 74 127 0.0 0.0 0.00 0.00 0.00 97 1012.6
20260902052424 74 129 0.0 0.0 0.00 0.00 0.00 97 1012.6
20260902051919 74 133 0.0 0.0 0.00 0.00 0.00 97 1012.8
20260902051414 74 149 0.0 0.0 0.00 0.00 0.00 97 1012.6
20260902050913 74 135 0.0 0.0 0.00 0.00 0.00 97 1012.7
20260902050413 74 130 0.0 0.0 0.00 0.00 0.00 97 1012.7
20260902045908 74 137 0.0 0.0 0.00 0.00 0.00 97 1012.8
20260902045403 74 126 0.0 0.0 0.00 0.00 0.00 97 1013.0
20260902044859 74 131 0.0 0.0 0.00 0.00 0.00 97 1013.0
20260902044354 74 133 0.0 0.0 0.00 0.00 0.00 97 1012.7
20260902043854 74 128 0.0 0.0 0.00 0.00 0.00 97 1012.8
20260902043350 74 126 0.0 0.0 0.00 0.00 0.00 96 1012.6
20260902042845 74 130 0.0 0.0 0.00 0.00 0.00 96 1012.8
20260902042344 74 127 0.0 0.0 0.00 0.00 0.00 96 1012.6
20260902041840 74 130 0.0 0.0 0.00 0.00 0.00 96 1012.7
20260902041340 75 127 0.0 0.0 0.00 0.00 0.00 96 1012.7
20260902040838 75 130 0.0 0.0 0.00 0.00 0.00 96 1012.9
20260902040334 75 131 0.0 0.0 0.00 0.00 0.00 96 1013.0
20260902035832 75 130 0.0 0.0 0.00 0.00 0.00 96 1012.8
20260902035328 75 131 0.0 0.0 0.00 0.00 0.00 96 1013.2
20260902034827 75 139 0.0 0.0 0.00 0.00 0.00 95 1013.2
20260902034323 75 135 0.0 0.0 0.00 0.00 0.00 95 1013.1
20260902033820 75 122 0.0 0.0 0.00 0.00 0.00 95 1012.8
20260902033316 75 124 0.0 0.0 0.00 0.00 0.00 95 1012.8
20260902032815 75 113 0.0 0.0 0.00 0.00 0.00 95 1012.8
20260902032310 75 146 0.0 0.0 0.00 0.00 0.00 95 1012.9
20260902031809 75 125 0.0 0.0 0.00 0.00 0.00 95 1012.9
20260902031305 75 128 0.0 0.0 0.00 0.00 0.00 94 1013.0
20260902030801 75 122 0.0 0.0 0.00 0.00 0.00 94 1013.0
20260902030255 75 128 0.0 0.0 0.00 0.00 0.00 94 1013.3
20260902025755 76 121 0.0 0.0 0.00 0.00 0.00 94 1013.0
20260902025250 76 124 0.0 0.0 0.00 0.00 0.00 93 1013.1
20260902024744 76 127 0.0 0.0 0.00 0.00 0.00 93 1013.1
20260902024240 76 134 0.0 0.0 0.00 0.00 0.00 93 1013.0
20260902023736 76 128 0.0 0.0 0.00 0.00 0.00 92 1012.9
20260902023231 76 134 0.0 0.0 0.00 0.00 0.00 92 1013.1
20260902022730 76 128 0.0 0.0 0.00 0.00 0.00 92 1013.2
20260902022226 76 128 0.0 0.0 0.00 0.00 0.00 91 1013.3
20260902021721 77 116 0.0 0.0 0.00 0.00 0.00 91 1012.9
20260902021215 77 124 0.0 0.0 0.00 0.00 0.00 90 1012.9
20260902020712 77 134 0.0 0.0 0.00 0.00 0.00 89 1013.1
20260902020208 77 129 0.0 0.0 0.00 0.00 0.00 89 1013.1
20260902015703 77 141 0.0 0.0 0.00 0.00 0.00 89 1013.1
20260902015159 77 152 0.0 0.0 0.00 0.00 0.00 89 1012.8
20260902014655 77 127 0.0 0.0 0.00 0.00 0.00 89 1013.0
20260902014150 77 129 0.0 0.0 0.00 0.00 0.00 88 1013.0
20260902013649 77 130 0.0 0.0 0.00 0.00 0.00 87 1013.1
20260902013145 78 135 0.0 0.0 0.00 0.00 0.00 87 1013.0
20260902012640 78 131 0.0 0.0 0.00 0.00 0.00 87 1012.9
20260902012136 78 133 0.0 0.0 0.00 0.00 0.00 86 1012.7
20260902011631 78 135 0.0 0.0 0.00 0.00 0.00 86 1012.6
20260902011130 78 126 0.0 0.0 0.00 0.00 0.00 86 1012.4
20260902010625 79 134 0.0 0.0 0.00 0.00 0.00 85 1012.4
20260902010121 79 133 0.0 0.0 0.00 0.00 0.00 84 1012.5
20260902005619 79 133 0.0 0.0 0.00 0.00 0.00 84 1012.4
20260902005115 79 134 0.0 0.0 0.00 0.00 0.00 84 1012.5
20260902004614 80 126 0.0 1.0 0.00 0.00 0.00 84 1012.4
20260902004109 80 158 0.0 1.0 0.00 0.00 0.00 84 1012.2
20260902003605 80 153 0.0 1.0 0.00 0.00 0.00 85 1012.4
20260902003100 80 133 0.0 0.0 0.00 0.00 0.00 84 1012.6
20260902002555 80 131 0.0 0.0 0.00 0.00 0.00 84 1012.4
20260902002050 80 132 0.0 0.0 0.00 0.00 0.00 84 1012.6
20260902001545 81 138 1.0 1.0 0.00 0.00 0.00 83 1012.9
20260902001040 81 134 0.0 0.0 0.00 0.00 0.00 83 1012.7
20260902000534 81 137 1.0 1.0 0.00 0.00 0.00 83 1012.7
20260902000030 81 169 1.0 1.0 0.00 0.00 0.00 83 1012.6
20260901235524 82 210 0.0 1.0 0.00 0.00 0.00 83 1012.9
20260901235020 82 157 0.0 0.0 0.00 0.00 0.00 83 1012.9
20260901234518 82 176 1.0 2.0 0.00 0.00 0.00 83 1013.0
20260901234014 82 193 0.0 1.0 0.00 0.00 0.00 83 1012.8
20260901233508 82 130 0.0 0.0 0.00 0.00 0.00 82 1013.2
20260901233005 82 226 2.0 2.0 0.00 0.00 0.00 82 1013.2
20260901232500 82 130 1.0 2.0 0.00 0.00 0.00 81 1013.4
20260901231954 83 151 1.0 1.0 0.00 0.00 0.00 81 1013.1
20260901231451 83 131 0.0 0.0 0.00 0.00 0.00 81 1013.2
20260901230948 83 165 2.0 2.0 0.00 0.00 0.00 80 1013.2
20260901230447 83 172 0.0 0.0 0.00 0.00 0.00 80 1013.0
20260901225942 83 224 1.0 2.0 0.00 0.00 0.00 80 1012.9
20260901225442 83 145 0.0 0.0 0.00 0.00 0.00 80 1012.9
20260901224936 84 198 1.0 2.0 0.00 0.00 0.00 79 1012.7
20260901224433 84 144 2.0 2.0 0.00 0.00 0.00 79 1013.1
20260901223929 84 177 2.0 3.0 0.00 0.00 0.00 78 1012.6
20260901223424 84 144 0.0 0.0 0.00 0.00 0.00 78 1012.8